When you browse on this site, cookies collect data to enhance your experience and personalize the content and advertising you see.
Visit our Privacy Policy to learn more. By continuing to use the site, you agree to this use of cookies and data.

Meteo pe oră la Trowbridge

Astăzi, 11 August, Marţi

Timp Temperatura Precipitaţii Vânt Presiune Umiditate
00:00 +20°C° 0 mm 1 m/s 757 mmHg 93%
01:00 +20°C° 0 mm 1 m/s 757 mmHg 94%
02:00 +20°C° 0 mm 1 m/s 756 mmHg 94%
03:00 +17°C° 0 mm 0 m/s 756 mmHg 95%
04:00 +18°C° 0 mm 0 m/s 756 mmHg 94%
05:00 +18°C° 0 mm 0 m/s 756 mmHg 93%
06:00 +19°C° 0 mm 0 m/s 756 mmHg 93%
07:00 +21°C° 0 mm 0 m/s 757 mmHg 85%
08:00 +24°C° 0 mm 1 m/s 757 mmHg 77%
09:00 +26°C° 0 mm 1 m/s 757 mmHg 70%
10:00 +28°C° 0 mm 1 m/s 757 mmHg 63%
11:00 +29°C° 0 mm 1 m/s 757 mmHg 56%
12:00 +31°C° 0 mm 1 m/s 757 mmHg 49%
13:00 +31°C° 0 mm 1 m/s 757 mmHg 48%
14:00 +32°C° 0 mm 1 m/s 757 mmHg 47%
15:00 +32°C° 0 mm 1 m/s 756 mmHg 47%
16:00 +31°C° 0 mm 2 m/s 756 mmHg 52%
17:00 +30°C° 0 mm 2 m/s 756 mmHg 58%
18:00 +29°C° 0 mm 2 m/s 756 mmHg 64%
19:00 +27°C° 0.1 mm 2 m/s 756 mmHg 70%
20:00 +25°C° 0.1 mm 1 m/s 756 mmHg 77%
21:00 +23°C° 0.1 mm 1 m/s 756 mmHg 83%
22:00 +23°C° 0 mm 1 m/s 756 mmHg 85%
23:00 +20°C° 0 mm 0 m/s 756 mmHg 86%

Mâine, 12 August, Miercuri

Timp Temperatura Precipitaţii Vânt Presiune Umiditate
00:00 +20°C° 0 mm 0 m/s 756 mmHg 88%
01:00 +20°C° 0 mm 0 m/s 756 mmHg 88%
02:00 +19°C° 0 mm 0 m/s 756 mmHg 89%
03:00 +19°C° 0 mm 0 m/s 756 mmHg 89%
04:00 +19°C° 0 mm 0 m/s 756 mmHg 89%
05:00 +20°C° 0 mm 0 m/s 755 mmHg 88%
06:00 +20°C° 0 mm 0 m/s 755 mmHg 87%
07:00 +22°C° 0 mm 0 m/s 755 mmHg 80%
08:00 +26°C° 0 mm 1 m/s 756 mmHg 74%
09:00 +27°C° 0 mm 1 m/s 756 mmHg 67%
10:00 +29°C° 0 mm 1 m/s 756 mmHg 62%
11:00 +30°C° 0 mm 1 m/s 755 mmHg 57%
12:00 +31°C° 0 mm 2 m/s 755 mmHg 52%
13:00 +31°C° 0 mm 2 m/s 755 mmHg 53%
14:00 +31°C° 0 mm 2 m/s 755 mmHg 54%
15:00 +31°C° 0 mm 2 m/s 755 mmHg 55%
16:00 +29°C° 1.5 mm 2 m/s 755 mmHg 65%
17:00 +27°C° 1.5 mm 2 m/s 755 mmHg 74%
18:00 +25°C° 1.5 mm 2 m/s 754 mmHg 84%
19:00 +24°C° 1.3 mm 2 m/s 755 mmHg 86%
20:00 +23°C° 1.3 mm 1 m/s 755 mmHg 88%
21:00 +22°C° 1.3 mm 1 m/s 755 mmHg 89%
22:00 +22°C° 0.5 mm 1 m/s 755 mmHg 90%
23:00 +22°C° 0.5 mm 1 m/s 755 mmHg 91%

Poimâine, 13 August, Joi

Timp Temperatura Precipitaţii Vânt Presiune Umiditate
00:00 +21°C° 0.5 mm 2 m/s 754 mmHg 92%
01:00 +20°C° 0.1 mm 2 m/s 754 mmHg 93%
02:00 +20°C° 0.1 mm 2 m/s 754 mmHg 94%
03:00 +20°C° 0.1 mm 2 m/s 754 mmHg 95%
04:00 +21°C° 0 mm 1 m/s 754 mmHg 95%
05:00 +21°C° 0 mm 1 m/s 754 mmHg 95%
06:00 +21°C° 0 mm 1 m/s 754 mmHg 95%
07:00 +23°C° 0 mm 1 m/s 754 mmHg 89%
08:00 +24°C° 0 mm 1 m/s 754 mmHg 83%
09:00 +26°C° 0 mm 1 m/s 754 mmHg 77%
10:00 +27°C° 0.4 mm 1 m/s 754 mmHg 73%
11:00 +27°C° 0.4 mm 2 m/s 754 mmHg 70%
12:00 +28°C° 0.4 mm 2 m/s 754 mmHg 66%
13:00 +28°C° 1.8 mm 2 m/s 753 mmHg 67%
14:00 +28°C° 1.8 mm 2 m/s 753 mmHg 68%
15:00 +28°C° 1.8 mm 2 m/s 753 mmHg 69%
16:00 +27°C° 2.9 mm 2 m/s 753 mmHg 75%
17:00 +26°C° 2.9 mm 2 m/s 753 mmHg 81%
18:00 +24°C° 2.9 mm 3 m/s 753 mmHg 88%
19:00 +23°C° 0.3 mm 2 m/s 753 mmHg 90%
20:00 +23°C° 0.3 mm 2 m/s 753 mmHg 92%
21:00 +21°C° 0.3 mm 2 m/s 753 mmHg 95%
22:00 +20°C° 0.8 mm 2 m/s 753 mmHg 95%
23:00 +20°C° 0.8 mm 2 m/s 753 mmHg 96%

14 August, Vineri

Timp Temperatura Precipitaţii Vânt Presiune Umiditate
00:00 +21°C° 0.8 mm 1 m/s 753 mmHg 97%
01:00 +21°C° 0.2 mm 1 m/s 753 mmHg 97%
02:00 +20°C° 0.2 mm 1 m/s 753 mmHg 97%
03:00 +20°C° 0.2 mm 1 m/s 753 mmHg 97%
04:00 +20°C° 0 mm 1 m/s 754 mmHg 97%
05:00 +20°C° 0 mm 1 m/s 754 mmHg 96%
06:00 +21°C° 0 mm 1 m/s 754 mmHg 96%
07:00 +21°C° 0 mm 1 m/s 754 mmHg 94%
08:00 +22°C° 0 mm 1 m/s 755 mmHg 92%
09:00 +22°C° 0 mm 1 m/s 755 mmHg 89%
10:00 +23°C° 0.4 mm 1 m/s 755 mmHg 87%
11:00 +23°C° 0.4 mm 2 m/s 755 mmHg 85%
12:00 +24°C° 0.4 mm 3 m/s 755 mmHg 83%
13:00 +24°C° 1.1 mm 3 m/s 755 mmHg 83%
14:00 +23°C° 1.1 mm 4 m/s 756 mmHg 83%
15:00 +23°C° 1.1 mm 5 m/s 756 mmHg 83%
16:00 +23°C° 0.5 mm 5 m/s 756 mmHg 84%
17:00 +22°C° 0.5 mm 5 m/s 756 mmHg 86%
18:00 +21°C° 0.5 mm 5 m/s 756 mmHg 88%
19:00 +20°C° 0 mm 5 m/s 756 mmHg 90%
20:00 +19°C° 0 mm 4 m/s 756 mmHg 92%
21:00 +18°C° 0 mm 4 m/s 756 mmHg 93%
22:00 +18°C° 0 mm 4 m/s 756 mmHg 94%
23:00 +18°C° 0 mm 4 m/s 756 mmHg 94%

15 August, Sâmbătă

Timp Temperatura Precipitaţii Vânt Presiune Umiditate
00:00 +18°C° 0 mm 3 m/s 756 mmHg 95%
01:00 +18°C° 0 mm 3 m/s 756 mmHg 95%
02:00 +18°C° 0 mm 3 m/s 756 mmHg 95%
03:00 +18°C° 0 mm 3 m/s 756 mmHg 95%
04:00 +18°C° 0 mm 3 m/s 756 mmHg 95%
05:00 +18°C° 0 mm 2 m/s 756 mmHg 95%
06:00 +18°C° 0 mm 2 m/s 756 mmHg 95%
07:00 +19°C° 0 mm 2 m/s 756 mmHg 93%
08:00 +19°C° 0 mm 2 m/s 756 mmHg 91%
09:00 +20°C° 0 mm 2 m/s 757 mmHg 90%
10:00 +20°C° 0 mm 2 m/s 757 mmHg 89%
11:00 +21°C° 0 mm 2 m/s 757 mmHg 87%
12:00 +21°C° 0 mm 2 m/s 757 mmHg 86%
13:00 +23°C° 0.1 mm 2 m/s 757 mmHg 84%
14:00 +23°C° 0.1 mm 2 m/s 756 mmHg 83%
15:00 +24°C° 0.1 mm 2 m/s 756 mmHg 81%
16:00 +23°C° 0.1 mm 2 m/s 756 mmHg 82%
17:00 +23°C° 0.1 mm 2 m/s 756 mmHg 83%
18:00 +23°C° 0.1 mm 1 m/s 756 mmHg 85%
19:00 +22°C° 0 mm 1 m/s 756 mmHg 88%
20:00 +21°C° 0 mm 1 m/s 756 mmHg 91%
21:00 +19°C° 0 mm 1 m/s 756 mmHg 95%
22:00 +19°C° 0 mm 1 m/s 755 mmHg 95%
23:00 +19°C° 0 mm 1 m/s 755 mmHg 95%

16 August, Duminică

Timp Temperatura Precipitaţii Vânt Presiune Umiditate
00:00 +19°C° 0 mm 1 m/s 755 mmHg 96%
01:00 +19°C° 0.1 mm 1 m/s 755 mmHg 96%
02:00 +19°C° 0.1 mm 1 m/s 754 mmHg 96%
03:00 +18°C° 0.1 mm 2 m/s 754 mmHg 97%
04:00 +19°C° 0.9 mm 1 m/s 754 mmHg 97%
05:00 +19°C° 0.9 mm 1 m/s 754 mmHg 97%
06:00 +19°C° 0.9 mm 1 m/s 754 mmHg 97%
07:00 +20°C° 0.1 mm 1 m/s 754 mmHg 94%
08:00 +21°C° 0.1 mm 1 m/s 754 mmHg 91%
09:00 +21°C° 0.1 mm 2 m/s 754 mmHg 88%
10:00 +21°C° 0.8 mm 2 m/s 753 mmHg 84%
11:00 +23°C° 0.8 mm 2 m/s 753 mmHg 80%
12:00 +24°C° 0.8 mm 2 m/s 753 mmHg 76%
13:00 +22°C° 1.9 mm 3 m/s 753 mmHg 77%
14:00 +22°C° 1.9 mm 4 m/s 753 mmHg 77%
15:00 +22°C° 1.9 mm 5 m/s 752 mmHg 78%
16:00 +21°C° 0.3 mm 5 m/s 752 mmHg 78%
17:00 +20°C° 0.3 mm 5 m/s 752 mmHg 79%
18:00 +19°C° 0.3 mm 5 m/s 752 mmHg 80%
19:00 +18°C° 0 mm 4 m/s 752 mmHg 85%
20:00 +17°C° 0 mm 4 m/s 753 mmHg 89%
21:00 +16°C° 0 mm 3 m/s 753 mmHg 94%
22:00 +14°C° 0 mm 3 m/s 753 mmHg 95%
23:00 +14°C° 0 mm 3 m/s 753 mmHg 95%
Arată mai mult